Caldwell, NJ

8:09 PM EDT on August 24, 2019 (GMT -0400)
Essex County

Weather History for KCDW - June, 2019

Change the Weather History Date:

Saturday, June 1, 2019

  Actual Average Record
Temperature  
Mean Temperature 71 °F -  
Max Temperature 82 °F 76 °F 93 °F (1987)
Min Temperature 60 °F 55 °F 32 °F (2003)
Cooling Degree Days 6    
Growing Degree Days 21 (Base 50)    
Moisture  
Dew Point 57 °F    
Average Humidity 63    
Maximum Humidity 93    
Minimum Humidity 36    
Precipitation  
Precipitation 0.00 in - - ()
Sea Level Pressure  
Sea Level Pressure 29.83 in    
Wind  
Wind Speed 2 mph (SSE)    
Max Wind Speed 10 mph    
Max Gust Speed -    
Visibility 10 miles    
Events      
Averages and records for this station are not official NWS values.
T = Trace of Precipitation, MM = Missing Value Source: NWS Daily Summary

Daily Weather History Graph

Daily Weather History Graph

Search for Another Location

Airport or City:

Astronomy

Jun. 01, 2019 Rise Set
Actual Time 5:27 AM EDT 8:22 PM EDT
Civil Twilight 4:55 AM EDT 8:55 PM EDT
Nautical Twilight 4:13 AM EDT 9:36 PM EDT
Astronomical Twilight 3:25 AM EDT 10:24 PM EDT
Moon 4:32 AM EDT (6/1) 6:32 PM EDT (6/1)
Length of Visible Light 16h 00m
Length of Day
14h 54m
Waning Crescent, 4% of the Moon is Illuminated
Jun 1
Waning Crescent
Jun 3
New
Jun 10
First Quarter
Jun 17
Full
Jun 25
Last Quarter

Hourly Weather History & Observations

Time (EDT) Temp. Heat Index Dew Point Humidity Pressure Visibility Wind Dir Wind Speed Gust Speed Precip Events Conditions
12:53 AM 64.9 °F - 61.0 °F 87% 29.83 in 10.0 mi Calm Calm - N/A   Clear
1:53 AM 64.0 °F - 60.1 °F 87% 29.83 in 9.0 mi Calm Calm - N/A   Clear
2:53 AM 63.0 °F - 61.0 °F 93% 29.81 in 8.0 mi Calm Calm - N/A   Clear
3:53 AM 61.0 °F - 59.0 °F 93% 29.82 in 8.0 mi Calm Calm - N/A   Clear
4:53 AM 62.1 °F - 59.0 °F 90% 29.85 in 10.0 mi North 3.5 mph - N/A   Clear
5:53 AM 60.1 °F - 57.9 °F 93% 29.86 in 8.0 mi ENE 3.5 mph - N/A   Clear
6:53 AM 62.1 °F - 57.9 °F 86% 29.88 in 9.0 mi Calm Calm - N/A   Clear
7:53 AM 64.9 °F - 59.0 °F 81% 29.87 in 10.0 mi Calm Calm - N/A   Clear
8:53 AM 69.1 °F - 57.0 °F 65% 29.88 in 10.0 mi Calm Calm - N/A   Clear
9:53 AM 73.0 °F - 55.0 °F 53% 29.88 in 10.0 mi South 6.9 mph - N/A   Clear
10:53 AM 75.0 °F - 57.0 °F 53% 29.88 in 10.0 mi NNE 3.5 mph - N/A   Clear
11:53 AM 78.1 °F - 57.9 °F 50% 29.88 in 10.0 mi Calm Calm - N/A   Clear
12:53 PM 79.0 °F - 57.9 °F 48% 29.85 in 10.0 mi Variable 5.8 mph - N/A   Clear
1:53 PM 81.0 °F - 52.0 °F 36% 29.83 in 10.0 mi SSW 5.8 mph - N/A   Clear
2:53 PM 82.0 °F 81.3 °F 54.0 °F 38% 29.80 in 10.0 mi Variable 3.5 mph - N/A   Clear
3:53 PM 82.0 °F 81.2 °F 53.1 °F 37% 29.79 in 10.0 mi Variable 4.6 mph - N/A   Clear
4:53 PM 81.0 °F 80.5 °F 54.0 °F 39% 29.79 in 10.0 mi South 10.4 mph - N/A   Clear
5:53 PM 79.0 °F - 51.1 °F 38% 29.78 in 10.0 mi South 10.4 mph - N/A   Partly Cloudy
6:53 PM 77.0 °F - 53.1 °F 43% 29.78 in 10.0 mi South 6.9 mph - N/A   Clear
7:53 PM 75.0 °F - 57.0 °F 53% 29.79 in 10.0 mi South 4.6 mph - N/A   Clear
8:53 PM 73.0 °F - 55.9 °F 55% 29.80 in 10.0 mi Calm Calm - N/A   Scattered Clouds
9:53 PM 72.0 °F - 57.0 °F 59% 29.81 in 10.0 mi Calm Calm - N/A   Mostly Cloudy
10:53 PM 71.1 °F - 59.0 °F 66% 29.81 in 10.0 mi Calm Calm - N/A   Mostly Cloudy
11:53 PM 71.1 °F - 60.1 °F 68% 29.82 in 10.0 mi Calm Calm - N/A   Overcast